Wetterdaten: Freitag, 10.09.2021
Datum Zeit Temp. Auen Feucht Auen Luftdruck Regen Richtung Richtung Windben
10.09.2021 00:00 13,9 C 86 % 1015,4 hPa 0,0 mm W 259 6,4 km/h (2 Bft)
10.09.2021 00:05 13,9 C 86 % 1015,4 hPa 0,0 mm W 259 6,4 km/h (2 Bft)
10.09.2021 00:10 13,8 C 86 % 1015,4 hPa 0,0 mm W 259 4,8 km/h (1 Bft)
10.09.2021 00:15 13,8 C 87 % 1015,4 hPa 0,0 mm W 259 4,8 km/h (1 Bft)
10.09.2021 00:20 13,8 C 86 % 1015,4 hPa 0,0 mm W 259 1,6 km/h (1 Bft)
10.09.2021 00:25 13,7 C 87 % 1015,4 hPa 0,0 mm W 259 3,2 km/h (1 Bft)
10.09.2021 00:30 13,7 C 87 % 1015,4 hPa 0,0 mm W 259 1,6 km/h (1 Bft)
10.09.2021 00:35 13,7 C 87 % 1015,4 hPa 0,0 mm W 259 1,6 km/h (1 Bft)
10.09.2021 00:40 13,6 C 87 % 1015,4 hPa 0,0 mm W 259 4,8 km/h (1 Bft)
10.09.2021 00:45 13,6 C 87 % 1015,4 hPa 0,0 mm W 259 4,8 km/h (1 Bft)
10.09.2021 00:50 13,6 C 87 % 1015,4 hPa 0,0 mm W 259 4,8 km/h (1 Bft)
10.09.2021 00:55 13,5 C 87 % 1015,4 hPa 0,0 mm W 259 4,8 km/h (1 Bft)
10.09.2021 01:00 13,4 C 87 % 1015,4 hPa 0,0 mm W 259 4,8 km/h (1 Bft)
10.09.2021 01:05 13,4 C 87 % 1015,4 hPa 0,0 mm W 259 1,6 km/h (1 Bft)
10.09.2021 01:10 13,3 C 87 % 1015,4 hPa 0,0 mm W 259 3,2 km/h (1 Bft)
10.09.2021 01:15 13,3 C 87 % 1015,5 hPa 0,0 mm W 259 0,0 km/h (0 Bft)
10.09.2021 01:20 13,3 C 87 % 1015,5 hPa 0,0 mm W 259 3,2 km/h (1 Bft)
10.09.2021 01:25 13,2 C 87 % 1015,5 hPa 0,0 mm W 259 0,0 km/h (0 Bft)
10.09.2021 01:30 13,2 C 87 % 1015,5 hPa 0,0 mm W 259 3,2 km/h (1 Bft)
10.09.2021 01:35 13,2 C 87 % 1015,5 hPa 0,0 mm W 259 3,2 km/h (1 Bft)
10.09.2021 01:40 13,1 C 87 % 1015,6 hPa 0,0 mm W 259 1,6 km/h (1 Bft)
10.09.2021 01:45 13,1 C 87 % 1015,5 hPa 0,0 mm W 259 4,8 km/h (1 Bft)
10.09.2021 01:50 13,1 C 87 % 1015,6 hPa 0,0 mm W 259 3,2 km/h (1 Bft)
10.09.2021 01:55 13,0 C 87 % 1015,6 hPa 0,0 mm W 259 3,2 km/h (1 Bft)
10.09.2021 02:00 12,9 C 87 % 1015,6 hPa 0,0 mm W 259 3,2 km/h (1 Bft)
10.09.2021 02:05 12,9 C 88 % 1015,6 hPa 0,0 mm W 259 1,6 km/h (1 Bft)
10.09.2021 02:10 12,9 C 88 % 1015,6 hPa 0,0 mm W 259 4,8 km/h (1 Bft)
10.09.2021 02:15 12,8 C 88 % 1015,7 hPa 0,0 mm W 259 4,8 km/h (1 Bft)
10.09.2021 02:20 12,8 C 88 % 1015,7 hPa 0,0 mm W 259 3,2 km/h (1 Bft)
10.09.2021 02:25 12,8 C 88 % 1015,7 hPa 0,0 mm W 259 1,6 km/h (1 Bft)
10.09.2021 02:30 12,8 C 88 % 1015,7 hPa 0,0 mm W 259 0,0 km/h (0 Bft)
10.09.2021 02:35 12,8 C 88 % 1015,7 hPa 0,0 mm W 259 4,8 km/h (1 Bft)
10.09.2021 02:40 12,8 C 88 % 1015,7 hPa 0,0 mm W 259 4,8 km/h (1 Bft)
10.09.2021 02:45 12,8 C 88 % 1015,6 hPa 0,0 mm W 259 3,2 km/h (1 Bft)
10.09.2021 02:50 12,8 C 88 % 1015,7 hPa 0,0 mm W 259 3,2 km/h (1 Bft)
10.09.2021 02:55 12,8 C 88 % 1015,8 hPa 0,0 mm W 259 4,8 km/h (1 Bft)
10.09.2021 03:00 12,7 C 88 % 1015,8 hPa 0,0 mm W 259 4,8 km/h (1 Bft)
10.09.2021 03:05 12,7 C 88 % 1015,7 hPa 0,0 mm W 259 3,2 km/h (1 Bft)
10.09.2021 03:10 12,7 C 88 % 1015,7 hPa 0,0 mm W 259 3,2 km/h (1 Bft)
10.09.2021 03:15 12,7 C 88 % 1015,8 hPa 0,0 mm W 259 3,2 km/h (1 Bft)
10.09.2021 03:20 12,7 C 88 % 1015,8 hPa 0,0 mm W 259 3,2 km/h (1 Bft)
10.09.2021 03:25 12,7 C 89 % 1015,8 hPa 0,0 mm W 259 3,2 km/h (1 Bft)
10.09.2021 03:30 12,7 C 89 % 1015,8 hPa 0,0 mm W 259 3,2 km/h (1 Bft)
10.09.2021 03:35 12,6 C 89 % 1015,8 hPa 0,0 mm W 259 0,0 km/h (0 Bft)
10.09.2021 03:40 12,6 C 89 % 1015,8 hPa 0,0 mm W 259 0,0 km/h (0 Bft)
10.09.2021 03:45 12,6 C 89 % 1015,8 hPa 0,0 mm W 259 1,6 km/h (1 Bft)
10.09.2021 03:50 12,6 C 89 % 1015,8 hPa 0,0 mm W 259 4,8 km/h (1 Bft)
10.09.2021 03:55 12,6 C 89 % 1015,9 hPa 0,0 mm W 259 4,8 km/h (1 Bft)
10.09.2021 04:00 12,6 C 89 % 1015,9 hPa 0,0 mm W 259 3,2 km/h (1 Bft)
10.09.2021 04:05 12,6 C 89 % 1015,9 hPa 0,0 mm W 259 4,8 km/h (1 Bft)
10.09.2021 04:10 12,6 C 89 % 1015,9 hPa 0,0 mm W 259 0,0 km/h (0 Bft)
10.09.2021 04:15 12,6 C 89 % 1016,0 hPa 0,0 mm W 259 0,0 km/h (0 Bft)
10.09.2021 04:20 12,5 C 89 % 1016,1 hPa 0,0 mm W 259 0,0 km/h (0 Bft)
10.09.2021 04:25 12,4 C 89 % 1016,0 hPa 0,0 mm W 259 0,0 km/h (0 Bft)
10.09.2021 04:30 12,4 C 89 % 1016,0 hPa 0,0 mm W 259 3,2 km/h (1 Bft)
10.09.2021 04:35 12,3 C 89 % 1015,9 hPa 0,0 mm W 259 0,0 km/h (0 Bft)
10.09.2021 04:40 12,3 C 89 % 1016,0 hPa 0,0 mm W 259 3,2 km/h (1 Bft)
10.09.2021 04:45 12,3 C 89 % 1016,0 hPa 0,0 mm W 259 1,6 km/h (1 Bft)
10.09.2021 04:50 12,3 C 89 % 1016,0 hPa 0,0 mm W 259 3,2 km/h (1 Bft)
10.09.2021 04:55 12,2 C 89 % 1016,0 hPa 0,0 mm W 259 0,0 km/h (0 Bft)
10.09.2021 05:00 12,2 C 89 % 1016,0 hPa 0,0 mm W 259 0,0 km/h (0 Bft)
10.09.2021 05:05 12,2 C 89 % 1016,0 hPa 0,0 mm W 259 1,6 km/h (1 Bft)
10.09.2021 05:10 12,1 C 89 % 1015,9 hPa 0,0 mm W 259 3,2 km/h (1 Bft)
10.09.2021 05:15 12,1 C 89 % 1015,9 hPa 0,0 mm W 259 4,8 km/h (1 Bft)
10.09.2021 05:20 12,1 C 89 % 1015,9 hPa 0,0 mm W 259 0,0 km/h (0 Bft)
10.09.2021 05:25 12,1 C 89 % 1015,9 hPa 0,0 mm W 259 0,0 km/h (0 Bft)
10.09.2021 05:30 12,1 C 89 % 1015,9 hPa 0,0 mm W 259 0,0 km/h (0 Bft)
10.09.2021 05:35 12,0 C 89 % 1015,9 hPa 0,0 mm W 259 0,0 km/h (0 Bft)
10.09.2021 05:40 12,0 C 89 % 1015,9 hPa 0,0 mm W 259 0,0 km/h (0 Bft)
10.09.2021 05:45 11,9 C 89 % 1015,9 hPa 0,0 mm W 259 0,0 km/h (0 Bft)
10.09.2021 05:50 11,9 C 89 % 1015,9 hPa 0,0 mm W 259 0,0 km/h (0 Bft)
10.09.2021 05:55 11,9 C 90 % 1015,9 hPa 0,0 mm W 259 0,0 km/h (0 Bft)
10.09.2021 06:00 11,9 C 89 % 1015,9 hPa 0,0 mm W 259 0,0 km/h (0 Bft)
10.09.2021 06:05 11,9 C 89 % 1015,9 hPa 0,0 mm W 259 0,0 km/h (0 Bft)
10.09.2021 06:10 11,9 C 90 % 1015,8 hPa 0,0 mm W 259 0,0 km/h (0 Bft)
10.09.2021 06:15 11,9 C 89 % 1015,9 hPa 0,0 mm W 259 0,0 km/h (0 Bft)
10.09.2021 06:20 11,9 C 89 % 1015,9 hPa 0,0 mm W 259 0,0 km/h (0 Bft)
10.09.2021 06:25 11,9 C 90 % 1015,9 hPa 0,0 mm W 259 3,2 km/h (1 Bft)
10.09.2021 06:30 11,8 C 90 % 1015,9 hPa 0,0 mm W 259 1,6 km/h (1 Bft)
10.09.2021 06:35 11,8 C 90 % 1016,0 hPa 0,0 mm W 259 0,0 km/h (0 Bft)
10.09.2021 06:40 11,8 C 90 % 1016,0 hPa 0,0 mm W 259 0,0 km/h (0 Bft)
10.09.2021 06:45 11,8 C 90 % 1016,0 hPa 0,0 mm W 259 0,0 km/h (0 Bft)
10.09.2021 06:50 11,8 C 90 % 1016,0 hPa 0,0 mm W 259 0,0 km/h (0 Bft)
10.09.2021 06:55 11,8 C 90 % 1016,0 hPa 0,0 mm W 259 0,0 km/h (0 Bft)
10.09.2021 07:00 11,8 C 90 % 1016,0 hPa 0,0 mm W 259 1,6 km/h (1 Bft)
10.09.2021 07:05 11,7 C 90 % 1016,1 hPa 0,0 mm W 259 1,6 km/h (1 Bft)
10.09.2021 07:10 11,7 C 90 % 1016,0 hPa 0,0 mm W 259 0,0 km/h (0 Bft)
10.09.2021 07:15 11,8 C 90 % 1016,0 hPa 0,0 mm W 259 0,0 km/h (0 Bft)
10.09.2021 07:20 11,8 C 90 % 1016,0 hPa 0,0 mm W 259 1,6 km/h (1 Bft)
10.09.2021 07:25 12,1 C 90 % 1016,0 hPa 0,0 mm W 259 0,0 km/h (0 Bft)
10.09.2021 07:30 12,3 C 91 % 1016,0 hPa 0,0 mm W 259 0,0 km/h (0 Bft)
10.09.2021 07:35 12,5 C 91 % 1016,0 hPa 0,0 mm W 259 0,0 km/h (0 Bft)
10.09.2021 07:40 12,8 C 91 % 1016,1 hPa 0,0 mm W 259 0,0 km/h (0 Bft)
10.09.2021 07:45 13,0 C 91 % 1016,0 hPa 0,0 mm W 259 0,0 km/h (0 Bft)
10.09.2021 07:50 13,4 C 91 % 1016,0 hPa 0,0 mm W 259 0,0 km/h (0 Bft)
10.09.2021 07:55 13,8 C 91 % 1015,9 hPa 0,0 mm W 259 0,0 km/h (0 Bft)
10.09.2021 08:00 14,2 C 91 % 1015,9 hPa 0,0 mm W 259 0,0 km/h (0 Bft)
10.09.2021 08:05 14,6 C 91 % 1015,9 hPa 0,0 mm W 259 0,0 km/h (0 Bft)
10.09.2021 08:10 14,6 C 90 % 1015,9 hPa 0,0 mm W 259 0,0 km/h (0 Bft)
10.09.2021 08:15 14,8 C 90 % 1015,8 hPa 0,0 mm W 259 0,0 km/h (0 Bft)
10.09.2021 08:20 15,3 C 91 % 1015,8 hPa 0,0 mm W 259 0,0 km/h (0 Bft)
10.09.2021 08:25 16,1 C 90 % 1015,8 hPa 0,0 mm W 259 0,0 km/h (0 Bft)
10.09.2021 08:30 16,5 C 87 % 1015,9 hPa 0,0 mm W 259 0,0 km/h (0 Bft)
10.09.2021 08:35 17,2 C 86 % 1016,0 hPa 0,0 mm W 259 0,0 km/h (0 Bft)
10.09.2021 08:40 17,2 C 84 % 1015,9 hPa 0,0 mm W 259 0,0 km/h (0 Bft)
10.09.2021 08:45 16,5 C 82 % 1015,9 hPa 0,0 mm W 259 0,0 km/h (0 Bft)
10.09.2021 08:50 16,7 C 83 % 1016,0 hPa 0,0 mm W 259 0,0 km/h (0 Bft)
10.09.2021 08:55 16,6 C 84 % 1015,9 hPa 0,0 mm W 259 0,0 km/h (0 Bft)
10.09.2021 09:00 17,2 C 85 % 1015,8 hPa 0,0 mm W 259 0,0 km/h (0 Bft)
10.09.2021 09:05 17,9 C 80 % 1015,8 hPa 0,0 mm W 259 0,0 km/h (0 Bft)
10.09.2021 09:10 17,8 C 82 % 1015,9 hPa 0,0 mm S-SO 157 3,2 km/h (1 Bft)
10.09.2021 09:15 17,7 C 83 % 1016,0 hPa 0,0 mm S-SO 157 3,2 km/h (1 Bft)
10.09.2021 09:20 17,7 C 82 % 1015,9 hPa 0,0 mm S-SO 157 1,6 km/h (1 Bft)
10.09.2021 09:25 18,0 C 82 % 1015,9 hPa 0,0 mm S-SO 157 1,6 km/h (1 Bft)
10.09.2021 09:30 18,1 C 81 % 1015,9 hPa 0,0 mm S-SO 155 3,2 km/h (1 Bft)
10.09.2021 09:35 18,7 C 80 % 1016,0 hPa 0,0 mm S-SO 155 3,2 km/h (1 Bft)
10.09.2021 09:40 18,7 C 79 % 1015,9 hPa 0,0 mm S-SO 155 4,8 km/h (1 Bft)
10.09.2021 09:45 19,1 C 76 % 1015,9 hPa 0,0 mm S-SO 156 4,8 km/h (1 Bft)
10.09.2021 09:50 19,1 C 77 % 1015,9 hPa 0,0 mm S-SO 155 3,2 km/h (1 Bft)
10.09.2021 09:55 19,2 C 78 % 1015,9 hPa 0,0 mm S-SO 155 3,2 km/h (1 Bft)
10.09.2021 10:00 19,4 C 78 % 1015,9 hPa 0,0 mm O-SO 106 4,8 km/h (1 Bft)
10.09.2021 10:05 19,4 C 76 % 1015,9 hPa 0,0 mm O-SO 106 6,4 km/h (2 Bft)
10.09.2021 10:10 19,7 C 78 % 1015,9 hPa 0,0 mm O-SO 119 8,0 km/h (2 Bft)
10.09.2021 10:15 19,7 C 78 % 1015,9 hPa 0,0 mm O-SO 123 6,4 km/h (2 Bft)
10.09.2021 10:20 19,8 C 77 % 1015,9 hPa 0,0 mm SO 132 6,4 km/h (2 Bft)
10.09.2021 10:25 20,1 C 76 % 1015,8 hPa 0,0 mm S-SO 149 6,4 km/h (2 Bft)
10.09.2021 10:30 20,0 C 75 % 1015,8 hPa 0,0 mm S-SO 147 6,4 km/h (2 Bft)
10.09.2021 10:35 20,2 C 75 % 1015,9 hPa 0,0 mm SO 126 8,0 km/h (2 Bft)
10.09.2021 10:40 20,2 C 77 % 1015,9 hPa 0,0 mm O-SO 123 6,4 km/h (2 Bft)
10.09.2021 10:45 20,5 C 78 % 1015,8 hPa 0,0 mm O 86 8,0 km/h (2 Bft)
10.09.2021 10:50 20,7 C 74 % 1015,8 hPa 0,0 mm O-NO 71 8,0 km/h (2 Bft)
10.09.2021 10:55 20,9 C 73 % 1015,9 hPa 0,0 mm O-SO 108 9,7 km/h (2 Bft)
10.09.2021 11:00 20,7 C 73 % 1015,8 hPa 0,0 mm SO 144 8,0 km/h (2 Bft)
10.09.2021 11:05 20,7 C 74 % 1015,8 hPa 0,0 mm SO 130 8,0 km/h (2 Bft)
10.09.2021 11:10 21,1 C 75 % 1015,8 hPa 0,0 mm S-SO 157 6,4 km/h (2 Bft)
10.09.2021 11:15 21,3 C 72 % 1015,7 hPa 0,0 mm O-SO 115 6,4 km/h (2 Bft)
10.09.2021 11:20 21,5 C 72 % 1015,7 hPa 0,0 mm O-SO 122 8,0 km/h (2 Bft)
10.09.2021 11:25 21,7 C 74 % 1015,7 hPa 0,0 mm O 88 8,0 km/h (2 Bft)
10.09.2021 11:30 21,8 C 74 % 1015,6 hPa 0,0 mm O-SO 118 8,0 km/h (2 Bft)
10.09.2021 11:35 22,1 C 72 % 1015,7 hPa 0,0 mm O-NO 76 8,0 km/h (2 Bft)
10.09.2021 11:40 22,2 C 69 % 1015,7 hPa 0,0 mm SO 141 8,0 km/h (2 Bft)
10.09.2021 11:45 22,2 C 71 % 1015,7 hPa 0,0 mm SO 128 11,3 km/h (2 Bft)
10.09.2021 11:50 22,3 C 73 % 1015,6 hPa 0,0 mm O-SO 103 9,7 km/h (2 Bft)
10.09.2021 11:55 22,3 C 71 % 1015,5 hPa 0,0 mm O-SO 119 11,3 km/h (2 Bft)
10.09.2021 12:00 22,4 C 70 % 1015,6 hPa 0,0 mm O-SO 122 9,7 km/h (2 Bft)
10.09.2021 12:05 22,4 C 68 % 1015,5 hPa 0,0 mm O-SO 105 12,9 km/h (3 Bft)
10.09.2021 12:10 22,6 C 71 % 1015,4 hPa 0,0 mm O 97 9,7 km/h (2 Bft)
10.09.2021 12:15 22,8 C 69 % 1015,4 hPa 0,0 mm O-SO 113 11,3 km/h (2 Bft)
10.09.2021 12:20 22,9 C 68 % 1015,4 hPa 0,0 mm O-SO 120 12,9 km/h (3 Bft)
10.09.2021 12:25 22,9 C 69 % 1015,3 hPa 0,0 mm SO 135 12,9 km/h (3 Bft)
10.09.2021 12:30 22,9 C 68 % 1015,3 hPa 0,0 mm SO 129 12,9 km/h (3 Bft)
10.09.2021 12:35 22,9 C 69 % 1015,3 hPa 0,0 mm SO 144 11,3 km/h (2 Bft)
10.09.2021 12:40 23,0 C 69 % 1015,3 hPa 0,0 mm SO 136 12,9 km/h (3 Bft)
10.09.2021 12:45 23,2 C 67 % 1015,3 hPa 0,0 mm O-SO 123 11,3 km/h (2 Bft)
10.09.2021 12:50 23,4 C 72 % 1015,2 hPa 0,0 mm SO 126 11,3 km/h (2 Bft)
10.09.2021 12:55 23,1 C 68 % 1015,2 hPa 0,0 mm O 101 14,5 km/h (3 Bft)
10.09.2021 13:00 23,4 C 72 % 1015,1 hPa 0,0 mm SO 124 14,5 km/h (3 Bft)
10.09.2021 13:05 23,3 C 67 % 1015,0 hPa 0,0 mm O 101 12,9 km/h (3 Bft)
10.09.2021 13:10 23,2 C 69 % 1015,1 hPa 0,0 mm O-SO 105 12,9 km/h (3 Bft)
10.09.2021 13:15 23,3 C 69 % 1015,0 hPa 0,0 mm O-SO 113 12,9 km/h (3 Bft)
10.09.2021 13:20 23,4 C 70 % 1015,0 hPa 0,0 mm SO 130 12,9 km/h (3 Bft)
10.09.2021 13:25 23,4 C 72 % 1015,0 hPa 0,0 mm O-SO 120 11,3 km/h (2 Bft)
10.09.2021 13:30 23,6 C 70 % 1014,9 hPa 0,0 mm O-SO 104 12,9 km/h (3 Bft)
10.09.2021 13:35 23,4 C 66 % 1014,9 hPa 0,0 mm SO 130 12,9 km/h (3 Bft)
10.09.2021 13:40 23,5 C 70 % 1014,9 hPa 0,0 mm O-SO 117 14,5 km/h (3 Bft)
10.09.2021 13:45 23,6 C 69 % 1014,8 hPa 0,0 mm O 95 12,9 km/h (3 Bft)
10.09.2021 13:50 23,6 C 68 % 1014,8 hPa 0,0 mm SO 140 11,3 km/h (2 Bft)
10.09.2021 13:55 23,6 C 68 % 1014,8 hPa 0,0 mm O-SO 123 12,9 km/h (3 Bft)
10.09.2021 14:00 23,6 C 68 % 1014,7 hPa 0,0 mm O 89 14,5 km/h (3 Bft)
10.09.2021 14:05 23,6 C 68 % 1014,6 hPa 0,0 mm SO 137 11,3 km/h (2 Bft)
10.09.2021 14:10 23,7 C 69 % 1014,6 hPa 0,0 mm O-SO 122 11,3 km/h (2 Bft)
10.09.2021 14:15 23,8 C 68 % 1014,6 hPa 0,0 mm O 98 11,3 km/h (2 Bft)
10.09.2021 14:20 23,8 C 68 % 1014,6 hPa 0,0 mm O-SO 123 14,5 km/h (3 Bft)
10.09.2021 14:25 23,8 C 70 % 1014,5 hPa 0,0 mm O-NO 76 12,9 km/h (3 Bft)
10.09.2021 14:30 23,8 C 70 % 1014,4 hPa 0,0 mm O-NO 78 14,5 km/h (3 Bft)
10.09.2021 14:35 23,8 C 68 % 1014,4 hPa 0,0 mm O-SO 105 12,9 km/h (3 Bft)
10.09.2021 14:40 23,9 C 70 % 1014,3 hPa 0,0 mm O 96 11,3 km/h (2 Bft)
10.09.2021 14:45 23,9 C 68 % 1014,3 hPa 0,0 mm O-SO 119 11,3 km/h (2 Bft)
10.09.2021 14:50 23,9 C 69 % 1014,3 hPa 0,0 mm O-SO 119 9,7 km/h (2 Bft)
10.09.2021 14:55 23,9 C 68 % 1014,2 hPa 0,0 mm SO 130 12,9 km/h (3 Bft)
10.09.2021 15:00 23,9 C 67 % 1014,3 hPa 0,0 mm SO 134 14,5 km/h (3 Bft)
10.09.2021 15:05 24,1 C 68 % 1014,2 hPa 0,0 mm O-SO 105 12,9 km/h (3 Bft)
10.09.2021 15:10 24,1 C 67 % 1014,3 hPa 0,0 mm O-SO 110 9,7 km/h (2 Bft)
10.09.2021 15:15 24,0 C 68 % 1014,2 hPa 0,0 mm O-SO 123 11,3 km/h (2 Bft)
10.09.2021 15:20 24,0 C 69 % 1014,2 hPa 0,0 mm O-SO 103 9,7 km/h (2 Bft)
10.09.2021 15:25 24,0 C 67 % 1014,1 hPa 0,0 mm S-SO 149 11,3 km/h (2 Bft)
10.09.2021 15:30 24,0 C 69 % 1014,1 hPa 0,0 mm O 88 14,5 km/h (3 Bft)
10.09.2021 15:35 24,0 C 68 % 1014,1 hPa 0,0 mm O 81 12,9 km/h (3 Bft)
10.09.2021 15:40 23,9 C 68 % 1014,0 hPa 0,0 mm O 97 12,9 km/h (3 Bft)
10.09.2021 15:45 23,9 C 68 % 1014,0 hPa 0,0 mm O-SO 115 12,9 km/h (3 Bft)
10.09.2021 15:50 23,9 C 68 % 1014,0 hPa 0,0 mm SO 129 14,5 km/h (3 Bft)
10.09.2021 15:55 23,9 C 65 % 1014,0 hPa 0,0 mm O 101 12,9 km/h (3 Bft)
10.09.2021 16:00 23,9 C 69 % 1014,0 hPa 0,0 mm O 88 12,9 km/h (3 Bft)
10.09.2021 16:05 23,9 C 66 % 1014,0 hPa 0,0 mm O-SO 121 12,9 km/h (3 Bft)
10.09.2021 16:10 23,9 C 66 % 1013,9 hPa 0,0 mm O-SO 115 12,9 km/h (3 Bft)
10.09.2021 16:15 23,9 C 66 % 1013,9 hPa 0,0 mm O-SO 105 11,3 km/h (2 Bft)
10.09.2021 16:20 23,9 C 67 % 1013,9 hPa 0,0 mm SO 134 12,9 km/h (3 Bft)
10.09.2021 16:25 23,8 C 66 % 1013,9 hPa 0,0 mm SO 140 11,3 km/h (2 Bft)
10.09.2021 16:30 23,8 C 65 % 1013,9 hPa 0,0 mm SO 134 14,5 km/h (3 Bft)
10.09.2021 16:35 23,8 C 67 % 1013,7 hPa 0,0 mm O-SO 113 11,3 km/h (2 Bft)
10.09.2021 16:40 23,8 C 67 % 1013,8 hPa 0,0 mm SO 136 11,3 km/h (2 Bft)
10.09.2021 16:45 23,8 C 67 % 1013,9 hPa 0,0 mm O 100 11,3 km/h (2 Bft)
10.09.2021 16:50 23,7 C 66 % 1013,9 hPa 0,0 mm SO 142 8,0 km/h (2 Bft)
10.09.2021 16:55 23,7 C 67 % 1013,8 hPa 0,0 mm O-NO 66 8,0 km/h (2 Bft)
10.09.2021 17:00 23,7 C 67 % 1013,8 hPa 0,0 mm O-SO 103 9,7 km/h (2 Bft)
10.09.2021 17:05 23,7 C 67 % 1013,8 hPa 0,0 mm SO 128 11,3 km/h (2 Bft)
10.09.2021 17:10 23,6 C 67 % 1013,8 hPa 0,0 mm O-SO 118 11,3 km/h (2 Bft)
10.09.2021 17:15 23,6 C 66 % 1013,9 hPa 0,0 mm SO 142 8,0 km/h (2 Bft)
10.09.2021 17:20 23,6 C 67 % 1013,9 hPa 0,0 mm O-SO 119 6,4 km/h (2 Bft)
10.09.2021 17:25 23,5 C 67 % 1013,9 hPa 0,0 mm O-SO 121 6,4 km/h (2 Bft)
10.09.2021 17:30 23,5 C 68 % 1013,8 hPa 0,0 mm O 96 8,0 km/h (2 Bft)
10.09.2021 17:35 23,4 C 69 % 1013,9 hPa 0,0 mm O-SO 107 9,7 km/h (2 Bft)
10.09.2021 17:40 23,4 C 68 % 1013,9 hPa 0,0 mm O 94 9,7 km/h (2 Bft)
10.09.2021 17:45 23,3 C 68 % 1013,9 hPa 0,0 mm O 82 4,8 km/h (1 Bft)
10.09.2021 17:50 23,3 C 68 % 1013,9 hPa 0,0 mm O 94 8,0 km/h (2 Bft)
10.09.2021 17:55 23,2 C 69 % 1013,9 hPa 0,0 mm O-NO 57 4,8 km/h (1 Bft)
10.09.2021 18:00 23,2 C 70 % 1013,9 hPa 0,0 mm O-NO 58 4,8 km/h (1 Bft)
10.09.2021 18:05 23,1 C 70 % 1013,9 hPa 0,0 mm O-SO 121 4,8 km/h (1 Bft)
10.09.2021 18:10 22,9 C 70 % 1013,8 hPa 0,0 mm O-SO 121 4,8 km/h (1 Bft)
10.09.2021 18:15 22,9 C 71 % 1013,8 hPa 0,0 mm O-SO 121 3,2 km/h (1 Bft)
10.09.2021 18:20 22,8 C 70 % 1013,9 hPa 0,0 mm O-NO 70 4,8 km/h (1 Bft)
10.09.2021 18:25 22,7 C 71 % 1013,9 hPa 0,0 mm O-NO 70 1,6 km/h (1 Bft)
10.09.2021 18:30 22,6 C 71 % 1013,8 hPa 0,0 mm O-SO 111 4,8 km/h (1 Bft)
10.09.2021 18:35 22,4 C 72 % 1013,8 hPa 0,0 mm SO 125 4,8 km/h (1 Bft)
10.09.2021 18:40 22,3 C 72 % 1013,8 hPa 0,0 mm SO 125 3,2 km/h (1 Bft)
10.09.2021 18:45 22,1 C 71 % 1013,9 hPa 0,0 mm SO 125 3,2 km/h (1 Bft)
10.09.2021 18:50 22,0 C 72 % 1013,9 hPa 0,0 mm SO 125 0,0 km/h (0 Bft)
10.09.2021 18:55 21,9 C 72 % 1014,0 hPa 0,0 mm SO 125 1,6 km/h (1 Bft)
10.09.2021 19:00 21,8 C 72 % 1014,0 hPa 0,0 mm SO 125 0,0 km/h (0 Bft)
10.09.2021 19:05 21,8 C 72 % 1014,0 hPa 0,0 mm SO 125 0,0 km/h (0 Bft)
10.09.2021 19:10 21,6 C 72 % 1014,0 hPa 0,0 mm SO 125 0,0 km/h (0 Bft)
10.09.2021 19:15 21,4 C 73 % 1014,1 hPa 0,0 mm SO 125 1,6 km/h (1 Bft)
10.09.2021 19:20 21,2 C 73 % 1014,1 hPa 0,0 mm SO 125 0,0 km/h (0 Bft)
10.09.2021 19:25 21,0 C 74 % 1014,2 hPa 0,0 mm SO 125 0,0 km/h (0 Bft)
10.09.2021 19:30 20,8 C 74 % 1014,2 hPa 0,0 mm SO 125 0,0 km/h (0 Bft)
10.09.2021 19:35 20,6 C 75 % 1014,3 hPa 0,0 mm SO 125 1,6 km/h (1 Bft)
10.09.2021 19:40 20,4 C 75 % 1014,3 hPa 0,0 mm SO 125 0,0 km/h (0 Bft)
10.09.2021 19:45 20,2 C 75 % 1014,4 hPa 0,0 mm SO 125 0,0 km/h (0 Bft)
10.09.2021 19:50 19,9 C 75 % 1014,5 hPa 0,0 mm SO 125 0,0 km/h (0 Bft)
10.09.2021 19:55 19,7 C 76 % 1014,6 hPa 0,0 mm SO 125 0,0 km/h (0 Bft)
10.09.2021 20:00 19,4 C 76 % 1014,6 hPa 0,0 mm SO 125 3,2 km/h (1 Bft)
10.09.2021 20:05 19,2 C 76 % 1014,7 hPa 0,0 mm SO 125 1,6 km/h (1 Bft)
10.09.2021 20:10 19,0 C 77 % 1014,7 hPa 0,0 mm SO 125 0,0 km/h (0 Bft)
10.09.2021 20:15 18,8 C 77 % 1014,8 hPa 0,0 mm SO 125 0,0 km/h (0 Bft)
10.09.2021 20:20 18,7 C 78 % 1014,8 hPa 0,0 mm SO 125 0,0 km/h (0 Bft)
10.09.2021 20:25 18,5 C 78 % 1015,0 hPa 0,0 mm SO 125 0,0 km/h (0 Bft)
10.09.2021 20:30 18,3 C 78 % 1015,0 hPa 0,0 mm SO 125 0,0 km/h (0 Bft)
10.09.2021 20:35 18,2 C 79 % 1015,1 hPa 0,0 mm SO 125 0,0 km/h (0 Bft)
10.09.2021 20:40 18,0 C 79 % 1015,2 hPa 0,0 mm SO 125 0,0 km/h (0 Bft)
10.09.2021 20:45 17,8 C 79 % 1015,3 hPa 0,0 mm SO 125 1,6 km/h (1 Bft)
10.09.2021 20:50 17,6 C 80 % 1015,2 hPa 0,0 mm SW 215 3,2 km/h (1 Bft)
10.09.2021 20:55 17,4 C 80 % 1015,3 hPa 0,0 mm SW 215 3,2 km/h (1 Bft)
10.09.2021 21:00 17,3 C 81 % 1015,5 hPa 0,0 mm W 268 6,4 km/h (2 Bft)
10.09.2021 21:05 17,2 C 81 % 1015,5 hPa 0,0 mm W 268 4,8 km/h (1 Bft)
10.09.2021 21:10 17,1 C 81 % 1015,5 hPa 0,0 mm W 268 3,2 km/h (1 Bft)
10.09.2021 21:15 17,0 C 82 % 1015,6 hPa 0,0 mm W 268 4,8 km/h (1 Bft)
10.09.2021 21:20 16,9 C 82 % 1015,6 hPa 0,0 mm W 268 0,0 km/h (0 Bft)
10.09.2021 21:25 16,8 C 83 % 1015,6 hPa 0,0 mm W 268 3,2 km/h (1 Bft)
10.09.2021 21:30 16,7 C 83 % 1015,6 hPa 0,0 mm W 268 3,2 km/h (1 Bft)
10.09.2021 21:35 16,6 C 83 % 1015,6 hPa 0,0 mm W 268 4,8 km/h (1 Bft)
10.09.2021 21:40 16,5 C 83 % 1015,6 hPa 0,0 mm W 268 3,2 km/h (1 Bft)
10.09.2021 21:45 16,4 C 84 % 1015,6 hPa 0,0 mm W 268 3,2 km/h (1 Bft)
10.09.2021 21:50 16,3 C 84 % 1015,6 hPa 0,0 mm W 268 3,2 km/h (1 Bft)
10.09.2021 21:55 16,3 C 84 % 1015,5 hPa 0,0 mm W 268 0,0 km/h (0 Bft)
10.09.2021 22:00 16,2 C 84 % 1015,5 hPa 0,0 mm W 268 4,8 km/h (1 Bft)
10.09.2021 22:05 16,2 C 84 % 1015,5 hPa 0,0 mm W 268 3,2 km/h (1 Bft)
10.09.2021 22:10 16,2 C 85 % 1015,6 hPa 0,0 mm W 268 4,8 km/h (1 Bft)
10.09.2021 22:15 16,1 C 85 % 1015,6 hPa 0,0 mm W 268 3,2 km/h (1 Bft)
10.09.2021 22:20 16,1 C 85 % 1015,6 hPa 0,0 mm W 268 0,0 km/h (0 Bft)
10.09.2021 22:25 16,0 C 85 % 1015,7 hPa 0,0 mm W 268 0,0 km/h (0 Bft)
10.09.2021 22:30 15,9 C 85 % 1015,8 hPa 0,0 mm W 268 4,8 km/h (1 Bft)
10.09.2021 22:35 15,8 C 85 % 1015,7 hPa 0,0 mm W 268 4,8 km/h (1 Bft)
10.09.2021 22:40 15,8 C 85 % 1015,7 hPa 0,0 mm W 268 0,0 km/h (0 Bft)
10.09.2021 22:45 15,7 C 86 % 1015,7 hPa 0,0 mm W 268 4,8 km/h (1 Bft)
10.09.2021 22:50 15,6 C 86 % 1015,8 hPa 0,0 mm W 268 4,8 km/h (1 Bft)
10.09.2021 22:55 15,6 C 86 % 1015,8 hPa 0,0 mm W 268 3,2 km/h (1 Bft)
10.09.2021 23:00 15,5 C 86 % 1015,8 hPa 0,0 mm W 268 4,8 km/h (1 Bft)
10.09.2021 23:05 15,4 C 86 % 1015,8 hPa 0,0 mm W 268 4,8 km/h (1 Bft)
10.09.2021 23:10 15,4 C 86 % 1015,8 hPa 0,0 mm W 268 6,4 km/h (2 Bft)
10.09.2021 23:15 15,3 C 86 % 1016,0 hPa 0,0 mm W 268 3,2 km/h (1 Bft)
10.09.2021 23:20 15,2 C 86 % 1016,1 hPa 0,0 mm W 268 4,8 km/h (1 Bft)
10.09.2021 23:25 15,2 C 86 % 1016,1 hPa 0,0 mm W 268 4,8 km/h (1 Bft)
10.09.2021 23:30 15,2 C 87 % 1016,2 hPa 0,0 mm W 268 3,2 km/h (1 Bft)
10.09.2021 23:35 15,1 C 87 % 1016,2 hPa 0,0 mm W 268 0,0 km/h (0 Bft)
10.09.2021 23:40 15,0 C 87 % 1016,3 hPa 0,0 mm W 268 3,2 km/h (1 Bft)
10.09.2021 23:45 14,9 C 87 % 1016,3 hPa 0,0 mm W 268 6,4 km/h (2 Bft)
10.09.2021 23:50 14,9 C 87 % 1016,4 hPa 0,0 mm W 268 1,6 km/h (1 Bft)
10.09.2021 23:55 14,9 C 87 % 1016,4 hPa 0,0 mm W 268 3,2 km/h (1 Bft)
_ Min-Zeit 07:05 15:55 16:35 - - - 01:15
Minimum _ 11,7 C 65 % 1013,7 hPa - - - 0,0 km/h (0 Bft)
_ Max-Zeit 15:05 07:30 23:50 00:00 - - 12:55
Maximum _ 24,1 C 91 % 1016,4 hPa 0,0 mm - - 14,5 km/h
O-SO (3 Bft)
Durchschnitt _ 17,8 C 80 % 1015,3 hPa #0,0 mm W - 5,0 km/h (1 Bft)